| time (UTC) | temp F | wind direction | speed MPH | gust MPH | rain 1hr in | rain 24hr in | rain mn in | humidity % | barometer mb |
| 20260508094500 | 58 | 165 | 4.0 | 9.0 | 0.00 | 0.00 | 0.00 | 61 | 1016.4 |
| 20260508093956 | 58 | 173 | 4.0 | 9.0 | 0.00 | 0.00 | 0.00 | 63 | 1016.4 |
| 20260508093457 | 58 | 171 | 5.0 | 9.0 | 0.00 | 0.00 | 0.00 | 63 | 1016.4 |
| 20260508093000 | 59 | 162 | 5.0 | 10.0 | 0.00 | 0.00 | 0.00 | 61 | 1016.4 |
| 20260508092456 | 59 | 151 | 5.0 | 10.0 | 0.00 | 0.00 | 0.00 | 63 | 1016.3 |
| 20260508091957 | 59 | 144 | 5.0 | 9.0 | 0.00 | 0.00 | 0.00 | 63 | 1016.3 |
| 20260508091500 | 58 | 140 | 4.0 | 8.0 | 0.00 | 0.00 | 0.00 | 63 | 1016.3 |
| 20260508090956 | 58 | 141 | 4.0 | 8.0 | 0.00 | 0.00 | 0.00 | 66 | 1016.2 |
| 20260508090457 | 58 | 145 | 4.0 | 8.0 | 0.00 | 0.00 | 0.00 | 65 | 1016.2 |
| 20260508085959 | 58 | 149 | 4.0 | 7.0 | 0.00 | 0.00 | 0.00 | 66 | 1016.2 |
| 20260508085458 | 58 | 152 | 4.0 | 8.0 | 0.00 | 0.00 | 0.00 | 65 | 1016.2 |
| 20260508084956 | 59 | 147 | 4.0 | 8.0 | 0.00 | 0.00 | 0.00 | 64 | 1016.2 |
| 20260508083957 | 58 | 160 | 4.0 | 9.0 | 0.00 | 0.00 | 0.00 | 67 | 1016.1 |
| 20260508083458 | 58 | 142 | 5.0 | 8.0 | 0.00 | 0.00 | 0.00 | 68 | 1016.1 |
| 20260508083000 | 57 | 148 | 5.0 | 8.0 | 0.00 | 0.00 | 0.00 | 69 | 1016.1 |
| 20260508082456 | 56 | 160 | 5.0 | 9.0 | 0.00 | 0.00 | 0.00 | 68 | 1016.0 |
| 20260508081958 | 56 | 165 | 4.0 | 9.0 | 0.00 | 0.00 | 0.00 | 68 | 1016.0 |
| 20260508081500 | 56 | 162 | 4.0 | 8.0 | 0.00 | 0.00 | 0.00 | 69 | 1016.1 |
| 20260508080457 | 56 | 152 | 5.0 | 10.0 | 0.00 | 0.00 | 0.00 | 69 | 1016.1 |
| 20260508080000 | 56 | 146 | 5.0 | 8.0 | 0.00 | 0.00 | 0.00 | 70 | 1016.1 |
| 20260508075457 | 55 | 143 | 5.0 | 9.0 | 0.00 | 0.00 | 0.00 | 71 | 1016.1 |
| 20260508074459 | 55 | 150 | 4.0 | 9.0 | 0.00 | 0.00 | 0.00 | 73 | 1016.1 |
| 20260508073957 | 55 | 157 | 3.0 | 7.0 | 0.00 | 0.00 | 0.00 | 75 | 1016.0 |
| 20260508073456 | 54 | 165 | 3.0 | 6.0 | 0.00 | 0.00 | 0.00 | 77 | 1016.0 |
| 20260508073001 | 54 | 160 | 2.0 | 6.0 | 0.00 | 0.00 | 0.00 | 78 | 1016.0 |
| 20260508072456 | 54 | 153 | 2.0 | 5.0 | 0.00 | 0.00 | 0.00 | 79 | 1015.9 |
| 20260508071958 | 53 | 147 | 3.0 | 7.0 | 0.00 | 0.00 | 0.00 | 80 | 1015.8 |
| 20260508071459 | 53 | 144 | 3.0 | 7.0 | 0.00 | 0.00 | 0.00 | 80 | 1015.8 |
| 20260508070956 | 53 | 149 | 2.0 | 4.0 | 0.00 | 0.00 | 0.00 | 81 | 1015.8 |
| 20260508070458 | 53 | 151 | 1.0 | 3.0 | 0.00 | 0.00 | 0.00 | 81 | 1015.7 |
| 20260508065959 | 52 | 0 | 0.0 | 4.0 | 0.00 | 0.00 | 0.00 | 81 | 1015.7 |
| 20260508065458 | 52 | 0 | 0.0 | 4.0 | 0.00 | 0.00 | 0.00 | 82 | 1015.6 |
| 20260508064956 | 51 | 135 | 1.0 | 3.0 | 0.00 | 0.00 | 0.00 | 82 | 1015.6 |
| 20260508063956 | 51 | 0 | 0.0 | 1.0 | 0.00 | 0.00 | 0.00 | 83 | 1015.5 |
| 20260508063457 | 51 | 0 | 0.0 | 1.0 | 0.00 | 0.00 | 0.00 | 83 | 1015.5 |
| 20260508062959 | 50 | 0 | 0.0 | 1.0 | 0.00 | 0.00 | 0.00 | 83 | 1015.4 |
| 20260508062456 | 50 | 0 | 0.0 | 2.0 | 0.00 | 0.00 | 0.00 | 84 | 1015.3 |
| 20260508061459 | 49 | 0 | 0.0 | 1.0 | 0.00 | 0.00 | 0.00 | 85 | 1015.4 |
| 20260508060958 | 49 | 0 | 0.0 | 0.0 | 0.00 | 0.00 | 0.00 | 86 | 1015.3 |
| 20260508055959 | 48 | 0 | 0.0 | 0.0 | 0.00 | 0.00 | 0.00 | 87 | 1015.3 |
| 20260508054956 | 48 | 0 | 0.0 | 0.0 | 0.00 | 0.00 | 0.00 | 87 | 1015.2 |
| 20260508053456 | 47 | 0 | 0.0 | 3.0 | 0.00 | 0.00 | 0.00 | 87 | 1015.2 |
| 20260508052959 | 47 | 124 | 1.0 | 3.0 | 0.00 | 0.00 | 0.00 | 87 | 1015.1 |
| 20260508051956 | 46 | 0 | 0.0 | 2.0 | 0.00 | 0.00 | 0.00 | 87 | 1015.1 |
| 20260508051459 | 46 | 0 | 0.0 | 2.0 | 0.00 | 0.00 | 0.00 | 87 | 1015.1 |
| 20260508050957 | 46 | 0 | 0.0 | 2.0 | 0.00 | 0.00 | 0.00 | 87 | 1015.0 |
| 20260508050457 | 46 | 0 | 0.0 | 1.0 | 0.00 | 0.00 | 0.00 | 87 | 1015.0 |
| 20260508050000 | 46 | 0 | 0.0 | 1.0 | 0.00 | 0.00 | 0.00 | 87 | 1015.0 |
| 20260508045457 | 46 | 0 | 0.0 | 0.0 | 0.00 | 0.00 | 0.00 | 88 | 1015.0 |
| 20260508044957 | 46 | 0 | 0.0 | 1.0 | 0.00 | 0.00 | 0.00 | 87 | 1014.9 |
| 20260508044500 | 46 | 0 | 0.0 | 2.0 | 0.00 | 0.00 | 0.00 | 87 | 1014.9 |
| 20260508043458 | 46 | 0 | 0.0 | 1.0 | 0.00 | 0.00 | 0.00 | 87 | 1015.0 |
| 20260508042959 | 46 | 0 | 0.0 | 1.0 | 0.00 | 0.00 | 0.00 | 87 | 1014.9 |
| 20260508042456 | 46 | 0 | 0.0 | 0.0 | 0.00 | 0.00 | 0.00 | 87 | 1014.9 |
| 20260508041957 | 46 | 0 | 0.0 | 0.0 | 0.00 | 0.00 | 0.00 | 87 | 1014.9 |
| 20260508041500 | 46 | 0 | 0.0 | 2.0 | 0.00 | 0.00 | 0.00 | 87 | 1014.9 |
| 20260508040958 | 46 | 127 | 1.0 | 3.0 | 0.00 | 0.00 | 0.00 | 86 | 1014.9 |
| 20260508040000 | 46 | 139 | 3.0 | 4.0 | 0.00 | 0.00 | 0.00 | 86 | 1014.8 |
| 20260508035457 | 46 | 141 | 3.0 | 4.0 | 0.00 | 0.00 | 0.00 | 86 | 1014.8 |
| 20260508034957 | 46 | 139 | 3.0 | 5.0 | 0.00 | 0.00 | 0.00 | 86 | 1014.8 |
| 20260508034500 | 46 | 140 | 3.0 | 5.0 | 0.00 | 0.00 | 0.00 | 86 | 1014.8 |
| 20260508033456 | 46 | 148 | 2.0 | 4.0 | 0.00 | 0.00 | 0.00 | 86 | 1014.7 |
| 20260508032959 | 46 | 148 | 2.0 | 4.0 | 0.00 | 0.00 | 0.00 | 85 | 1014.7 |
| 20260508032456 | 46 | 147 | 2.0 | 3.0 | 0.00 | 0.00 | 0.00 | 85 | 1014.7 |
| 20260508031459 | 47 | 142 | 2.0 | 4.0 | 0.00 | 0.00 | 0.00 | 85 | 1014.7 |
| 20260508030957 | 47 | 141 | 3.0 | 4.0 | 0.00 | 0.00 | 0.00 | 85 | 1014.7 |
| 20260508030456 | 47 | 144 | 2.0 | 4.0 | 0.00 | 0.00 | 0.00 | 85 | 1014.7 |
| 20260508024459 | 47 | 138 | 3.0 | 5.0 | 0.00 | 0.00 | 0.00 | 85 | 1014.7 |
| 20260508022457 | 46 | 136 | 1.0 | 3.0 | 0.00 | 0.00 | 0.00 | 85 | 1014.7 |
| 20260508021956 | 46 | 143 | 1.0 | 3.0 | 0.00 | 0.00 | 0.00 | 85 | 1014.7 |
| 20260508021459 | 47 | 147 | 1.0 | 3.0 | 0.00 | 0.00 | 0.00 | 84 | 1014.7 |
| 20260508020958 | 47 | 146 | 2.0 | 3.0 | 0.00 | 0.00 | 0.00 | 84 | 1014.7 |
| 20260508015959 | 47 | 146 | 2.0 | 4.0 | 0.00 | 0.00 | 0.00 | 84 | 1014.7 |
| 20260508015456 | 47 | 148 | 3.0 | 5.0 | 0.00 | 0.00 | 0.00 | 83 | 1014.7 |
| 20260508014956 | 47 | 142 | 3.0 | 5.0 | 0.00 | 0.00 | 0.00 | 84 | 1014.7 |
| 20260508013956 | 47 | 138 | 4.0 | 6.0 | 0.00 | 0.00 | 0.00 | 85 | 1014.6 |
| 20260508013457 | 47 | 140 | 4.0 | 6.0 | 0.00 | 0.00 | 0.00 | 86 | 1014.6 |
| 20260508012959 | 46 | 142 | 3.0 | 5.0 | 0.00 | 0.00 | 0.00 | 86 | 1014.7 |
| 20260508012456 | 46 | 143 | 2.0 | 4.0 | 0.00 | 0.00 | 0.00 | 87 | 1014.7 |
| 20260508011957 | 45 | 157 | 2.0 | 4.0 | 0.00 | 0.00 | 0.00 | 86 | 1014.7 |
| 20260508011500 | 45 | 172 | 2.0 | 3.0 | 0.00 | 0.00 | 0.00 | 86 | 1014.7 |
| 20260508010456 | 46 | 0 | 0.0 | 2.0 | 0.00 | 0.00 | 0.00 | 85 | 1014.7 |
| 20260508005959 | 47 | 0 | 0.0 | 2.0 | 0.00 | 0.00 | 0.00 | 84 | 1014.8 |
| 20260508005456 | 47 | 0 | 0.0 | 2.0 | 0.00 | 0.00 | 0.00 | 83 | 1014.8 |
| 20260508004956 | 47 | 0 | 0.0 | 2.0 | 0.00 | 0.00 | 0.00 | 82 | 1014.7 |
| 20260508004458 | 48 | 0 | 0.0 | 2.0 | 0.00 | 0.00 | 0.00 | 82 | 1014.7 |
| 20260508003956 | 49 | 173 | 1.0 | 2.0 | 0.00 | 0.00 | 0.00 | 81 | 1014.8 |
| 20260508003456 | 49 | 173 | 1.0 | 4.0 | 0.00 | 0.00 | 0.00 | 80 | 1014.7 |
| 20260508002959 | 49 | 171 | 2.0 | 4.0 | 0.00 | 0.00 | 0.00 | 79 | 1014.7 |
| 20260508002457 | 50 | 165 | 2.0 | 4.0 | 0.00 | 0.00 | 0.00 | 79 | 1014.7 |
| 20260508001956 | 50 | 155 | 2.0 | 4.0 | 0.00 | 0.00 | 0.00 | 78 | 1014.7 |
| 20260508001459 | 50 | 159 | 2.0 | 3.0 | 0.00 | 0.00 | 0.00 | 78 | 1014.7 |
| 20260508000457 | 51 | 159 | 3.0 | 5.0 | 0.00 | 0.00 | 0.00 | 77 | 1014.8 |
| 20260507235959 | 51 | 154 | 3.0 | 5.0 | 0.00 | 0.00 | 0.00 | 77 | 1014.8 |
| 20260507235456 | 51 | 156 | 3.0 | 5.0 | 0.00 | 0.00 | 0.00 | 76 | 1014.8 |
| 20260507234956 | 51 | 157 | 2.0 | 5.0 | 0.00 | 0.00 | 0.00 | 76 | 1014.8 |
| 20260507234458 | 51 | 148 | 2.0 | 5.0 | 0.00 | 0.00 | 0.00 | 77 | 1014.7 |
| 20260507233956 | 51 | 142 | 3.0 | 5.0 | 0.00 | 0.00 | 0.00 | 77 | 1014.8 |
| 20260507233456 | 51 | 142 | 3.0 | 5.0 | 0.00 | 0.00 | 0.00 | 76 | 1014.7 |
| 20260507233000 | 51 | 144 | 3.0 | 5.0 | 0.00 | 0.00 | 0.00 | 76 | 1014.7 |
| 20260507232456 | 51 | 142 | 3.0 | 5.0 | 0.00 | 0.00 | 0.00 | 76 | 1014.7 |
| 20260507231956 | 51 | 141 | 3.0 | 5.0 | 0.00 | 0.00 | 0.00 | 76 | 1014.7 |
| 20260507231459 | 52 | 144 | 3.0 | 5.0 | 0.00 | 0.00 | 0.00 | 76 | 1014.7 |
| 20260507230956 | 52 | 154 | 3.0 | 5.0 | 0.00 | 0.00 | 0.00 | 76 | 1014.7 |
| 20260507230456 | 52 | 161 | 2.0 | 5.0 | 0.00 | 0.00 | 0.00 | 76 | 1014.6 |
| 20260507230004 | 52 | 153 | 2.0 | 4.0 | 0.00 | 0.00 | 0.00 | 76 | 1014.7 |
| 20260507225456 | 52 | 141 | 3.0 | 4.0 | 0.00 | 0.00 | 0.00 | 76 | 1014.7 |
| 20260507224957 | 52 | 137 | 3.0 | 5.0 | 0.00 | 0.00 | 0.00 | 76 | 1014.7 |
| 20260507224500 | 52 | 136 | 3.0 | 6.0 | 0.00 | 0.00 | 0.00 | 76 | 1014.6 |
| 20260507223956 | 52 | 135 | 3.0 | 6.0 | 0.00 | 0.00 | 0.00 | 76 | 1014.6 |
| 20260507223456 | 51 | 133 | 3.0 | 5.0 | 0.00 | 0.00 | 0.00 | 77 | 1014.6 |
| 20260507222958 | 52 | 132 | 3.0 | 5.0 | 0.00 | 0.00 | 0.00 | 77 | 1014.5 |
| 20260507222456 | 52 | 131 | 4.0 | 5.0 | 0.00 | 0.00 | 0.00 | 77 | 1014.4 |
| 20260507221458 | 52 | 135 | 3.0 | 5.0 | 0.00 | 0.00 | 0.00 | 77 | 1014.5 |
| 20260507220956 | 52 | 136 | 3.0 | 5.0 | 0.00 | 0.00 | 0.00 | 77 | 1014.5 |
| 20260507220455 | 52 | 137 | 3.0 | 4.0 | 0.00 | 0.00 | 0.00 | 77 | 1014.5 |
| 20260507220000 | 52 | 140 | 3.0 | 4.0 | 0.00 | 0.00 | 0.00 | 77 | 1014.6 |
| 20260507215456 | 52 | 143 | 2.0 | 4.0 | 0.00 | 0.00 | 0.00 | 77 | 1014.5 |
| 20260507214956 | 52 | 144 | 2.0 | 4.0 | 0.00 | 0.00 | 0.00 | 77 | 1014.5 |
| 20260507214459 | 52 | 142 | 2.0 | 4.0 | 0.00 | 0.00 | 0.00 | 77 | 1014.6 |
| 20260507213956 | 52 | 141 | 2.0 | 4.0 | 0.00 | 0.00 | 0.00 | 76 | 1014.5 |
| 20260507213455 | 52 | 153 | 2.0 | 4.0 | 0.00 | 0.00 | 0.00 | 76 | 1014.6 |
| 20260507212959 | 52 | 165 | 2.0 | 4.0 | 0.00 | 0.00 | 0.00 | 76 | 1014.6 |
| 20260507212456 | 52 | 173 | 1.0 | 3.0 | 0.00 | 0.00 | 0.00 | 75 | 1014.5 |
| 20260507211957 | 52 | 173 | 1.0 | 3.0 | 0.00 | 0.00 | 0.00 | 75 | 1014.5 |
| 20260507211459 | 52 | 154 | 2.0 | 4.0 | 0.00 | 0.00 | 0.00 | 75 | 1014.5 |
| 20260507210956 | 53 | 140 | 3.0 | 4.0 | 0.00 | 0.00 | 0.00 | 74 | 1014.4 |
| 20260507210456 | 53 | 137 | 3.0 | 4.0 | 0.00 | 0.00 | 0.00 | 75 | 1014.4 |
| 20260507210000 | 53 | 137 | 3.0 | 5.0 | 0.00 | 0.00 | 0.00 | 75 | 1014.4 |
| 20260507205456 | 53 | 133 | 3.0 | 5.0 | 0.00 | 0.00 | 0.00 | 75 | 1014.4 |
| 20260507204956 | 53 | 132 | 3.0 | 5.0 | 0.00 | 0.00 | 0.00 | 75 | 1014.2 |
| 20260507204501 | 53 | 138 | 3.0 | 5.0 | 0.00 | 0.00 | 0.00 | 75 | 1014.2 |
| 20260507203457 | 53 | 125 | 3.0 | 5.0 | 0.00 | 0.00 | 0.00 | 76 | 1014.2 |
| 20260507202959 | 53 | 116 | 2.0 | 4.0 | 0.00 | 0.00 | 0.00 | 75 | 1014.2 |
| 20260507202456 | 53 | 115 | 1.0 | 3.0 | 0.00 | 0.00 | 0.00 | 75 | 1014.1 |
| 20260507201956 | 53 | 122 | 1.0 | 3.0 | 0.00 | 0.00 | 0.00 | 75 | 1014.1 |
| 20260507201500 | 53 | 129 | 1.0 | 3.0 | 0.00 | 0.00 | 0.00 | 75 | 1014.0 |
| 20260507200956 | 53 | 131 | 1.0 | 3.0 | 0.00 | 0.00 | 0.00 | 74 | 1014.0 |
| 20260507200457 | 53 | 135 | 2.0 | 5.0 | 0.00 | 0.00 | 0.00 | 73 | 1014.0 |
| 20260507195959 | 54 | 138 | 3.0 | 6.0 | 0.00 | 0.00 | 0.00 | 73 | 1013.9 |
| 20260507194956 | 54 | 159 | 5.0 | 12.0 | 0.00 | 0.00 | 0.00 | 68 | 1014.0 |
| 20260507194458 | 54 | 162 | 7.0 | 14.0 | 0.00 | 0.00 | 0.00 | 68 | 1014.1 |
| 20260507193956 | 55 | 165 | 6.0 | 14.0 | 0.00 | 0.00 | 0.00 | 67 | 1014.0 |
| 20260507193456 | 55 | 167 | 6.0 | 11.0 | 0.00 | 0.00 | 0.00 | 66 | 1014.0 |
| 20260507192958 | 55 | 163 | 5.0 | 12.0 | 0.00 | 0.00 | 0.00 | 66 | 1013.9 |
| 20260507192457 | 55 | 163 | 5.0 | 12.0 | 0.00 | 0.00 | 0.00 | 65 | 1013.9 |
| 20260507191956 | 55 | 161 | 4.0 | 10.0 | 0.00 | 0.00 | 0.00 | 64 | 1013.9 |
| 20260507191459 | 55 | 147 | 3.0 | 6.0 | 0.00 | 0.00 | 0.00 | 63 | 1013.8 |
| 20260507190956 | 55 | 144 | 3.0 | 6.0 | 0.00 | 0.00 | 0.00 | 62 | 1013.8 |
| 20260507185958 | 56 | 162 | 4.0 | 9.0 | 0.00 | 0.00 | 0.00 | 61 | 1013.7 |
| 20260507184957 | 56 | 152 | 3.0 | 5.0 | 0.00 | 0.00 | 0.00 | 60 | 1013.6 |
| 20260507184458 | 56 | 152 | 3.0 | 5.0 | 0.00 | 0.00 | 0.00 | 60 | 1013.5 |
| 20260507182958 | 56 | 150 | 4.0 | 6.0 | 0.00 | 0.00 | 0.00 | 59 | 1013.4 |
| 20260507182456 | 56 | 140 | 4.0 | 6.0 | 0.00 | 0.00 | 0.00 | 59 | 1013.4 |
| 20260507181500 | 56 | 141 | 4.0 | 8.0 | 0.00 | 0.00 | 0.00 | 58 | 1013.3 |
| 20260507180956 | 56 | 139 | 4.0 | 7.0 | 0.00 | 0.00 | 0.00 | 59 | 1013.2 |
| 20260507180456 | 56 | 138 | 4.0 | 7.0 | 0.00 | 0.00 | 0.00 | 59 | 1013.2 |
| 20260507175958 | 56 | 137 | 4.0 | 6.0 | 0.00 | 0.00 | 0.00 | 58 | 1013.2 |
| 20260507175457 | 57 | 139 | 3.0 | 5.0 | 0.00 | 0.00 | 0.00 | 59 | 1013.2 |
| 20260507174956 | 57 | 146 | 3.0 | 5.0 | 0.00 | 0.00 | 0.00 | 59 | 1013.3 |
| 20260507173957 | 57 | 144 | 3.0 | 7.0 | 0.00 | 0.00 | 0.00 | 57 | 1013.3 |
| 20260507173456 | 57 | 149 | 4.0 | 9.0 | 0.00 | 0.00 | 0.00 | 57 | 1013.2 |
| 20260507173000 | 57 | 152 | 4.0 | 9.0 | 0.00 | 0.00 | 0.00 | 56 | 1013.3 |
| 20260507172455 | 58 | 145 | 4.0 | 9.0 | 0.00 | 0.00 | 0.00 | 56 | 1013.2 |
| 20260507171956 | 58 | 141 | 5.0 | 9.0 | 0.00 | 0.00 | 0.00 | 55 | 1013.2 |
| 20260507171458 | 58 | 142 | 6.0 | 11.0 | 0.00 | 0.00 | 0.00 | 54 | 1013.2 |
| 20260507170956 | 58 | 138 | 6.0 | 11.0 | 0.00 | 0.00 | 0.00 | 54 | 1013.3 |
| 20260507165958 | 58 | 150 | 5.0 | 11.0 | 0.00 | 0.00 | 0.00 | 54 | 1013.3 |
| 20260507164459 | 59 | 149 | 5.0 | 11.0 | 0.00 | 0.00 | 0.00 | 52 | 1013.3 |
| 20260507163956 | 59 | 145 | 6.0 | 11.0 | 0.00 | 0.00 | 0.00 | 52 | 1013.2 |
| 20260507163455 | 59 | 147 | 7.0 | 12.0 | 0.00 | 0.00 | 0.00 | 52 | 1013.2 |
| 20260507162959 | 60 | 149 | 7.0 | 12.0 | 0.00 | 0.00 | 0.00 | 50 | 1013.2 |
| 20260507162456 | 60 | 145 | 6.0 | 10.0 | 0.00 | 0.00 | 0.00 | 52 | 1013.3 |
| 20260507161956 | 60 | 149 | 6.0 | 11.0 | 0.00 | 0.00 | 0.00 | 51 | 1013.2 |
| 20260507161459 | 60 | 152 | 6.0 | 11.0 | 0.00 | 0.00 | 0.00 | 51 | 1013.2 |
| 20260507160955 | 61 | 150 | 5.0 | 9.0 | 0.00 | 0.00 | 0.00 | 51 | 1013.2 |
| 20260507160458 | 61 | 140 | 6.0 | 10.0 | 0.00 | 0.00 | 0.00 | 52 | 1013.2 |
| 20260507155958 | 60 | 132 | 7.0 | 11.0 | 0.00 | 0.00 | 0.00 | 51 | 1013.3 |
| 20260507155456 | 60 | 138 | 6.0 | 11.0 | 0.00 | 0.00 | 0.00 | 51 | 1013.3 |
| 20260507154955 | 60 | 143 | 6.0 | 12.0 | 0.00 | 0.00 | 0.00 | 52 | 1013.3 |
| 20260507154459 | 61 | 140 | 6.0 | 12.0 | 0.00 | 0.00 | 0.00 | 51 | 1013.3 |
| 20260507153456 | 61 | 144 | 7.0 | 10.0 | 0.00 | 0.00 | 0.00 | 51 | 1013.4 |
| 20260507152457 | 61 | 157 | 6.0 | 12.0 | 0.00 | 0.00 | 0.00 | 50 | 1013.4 |
| 20260507151956 | 61 | 143 | 6.0 | 11.0 | 0.00 | 0.00 | 0.00 | 50 | 1013.4 |
| 20260507151458 | 62 | 140 | 7.0 | 11.0 | 0.00 | 0.00 | 0.00 | 52 | 1013.5 |
| 20260507150956 | 61 | 144 | 7.0 | 11.0 | 0.00 | 0.00 | 0.00 | 52 | 1013.6 |
| 20260507150456 | 61 | 146 | 7.0 | 12.0 | 0.00 | 0.00 | 0.00 | 51 | 1013.5 |
| 20260507150000 | 61 | 157 | 7.0 | 12.0 | 0.00 | 0.00 | 0.00 | 50 | 1013.6 |
| 20260507144956 | 62 | 150 | 7.0 | 12.0 | 0.00 | 0.00 | 0.00 | 50 | 1013.6 |
| 20260507143956 | 62 | 142 | 6.0 | 12.0 | 0.00 | 0.00 | 0.00 | 52 | 1013.8 |
| 20260507143456 | 62 | 157 | 7.0 | 12.0 | 0.00 | 0.00 | 0.00 | 51 | 1013.8 |
| 20260507142959 | 62 | 163 | 7.0 | 14.0 | 0.00 | 0.00 | 0.00 | 51 | 1013.9 |
| 20260507142456 | 62 | 165 | 6.0 | 14.0 | 0.00 | 0.00 | 0.00 | 50 | 1013.9 |
| 20260507141956 | 61 | 163 | 6.0 | 10.0 | 0.00 | 0.00 | 0.00 | 51 | 1014.1 |
| 20260507140955 | 61 | 161 | 6.0 | 12.0 | 0.00 | 0.00 | 0.00 | 51 | 1014.2 |
| 20260507140457 | 61 | 163 | 6.0 | 11.0 | 0.00 | 0.00 | 0.00 | 51 | 1014.2 |
| 20260507140000 | 61 | 157 | 6.0 | 11.0 | 0.00 | 0.00 | 0.00 | 54 | 1014.2 |
| 20260507134956 | 60 | 147 | 6.0 | 12.0 | 0.00 | 0.00 | 0.00 | 53 | 1014.3 |
| 20260507134459 | 61 | 142 | 7.0 | 13.0 | 0.00 | 0.00 | 0.00 | 53 | 1014.4 |
| 20260507133956 | 61 | 140 | 6.0 | 13.0 | 0.00 | 0.00 | 0.00 | 55 | 1014.3 |
| 20260507133455 | 60 | 156 | 6.0 | 13.0 | 0.00 | 0.00 | 0.00 | 56 | 1014.3 |
| 20260507132958 | 60 | 168 | 8.0 | 14.0 | 0.00 | 0.00 | 0.00 | 53 | 1014.4 |
| 20260507131956 | 60 | 163 | 8.0 | 14.0 | 0.00 | 0.00 | 0.00 | 54 | 1014.5 |
| 20260507131458 | 60 | 161 | 8.0 | 14.0 | 0.00 | 0.00 | 0.00 | 54 | 1014.5 |
| 20260507130955 | 60 | 157 | 6.0 | 13.0 | 0.00 | 0.00 | 0.00 | 55 | 1014.5 |
| 20260507130455 | 60 | 157 | 6.0 | 12.0 | 0.00 | 0.00 | 0.00 | 56 | 1014.5 |
| 20260507125958 | 60 | 157 | 6.0 | 14.0 | 0.00 | 0.00 | 0.00 | 55 | 1014.5 |
| 20260507125457 | 60 | 164 | 6.0 | 14.0 | 0.00 | 0.00 | 0.00 | 54 | 1014.6 |
| 20260507124957 | 61 | 160 | 6.0 | 11.0 | 0.00 | 0.00 | 0.00 | 54 | 1014.5 |
| 20260507124458 | 61 | 141 | 7.0 | 11.0 | 0.00 | 0.00 | 0.00 | 57 | 1014.5 |
| 20260507123956 | 61 | 140 | 7.0 | 12.0 | 0.00 | 0.00 | 0.00 | 54 | 1014.6 |
| 20260507123455 | 60 | 138 | 6.0 | 12.0 | 0.00 | 0.00 | 0.00 | 54 | 1014.6 |
| 20260507122958 | 60 | 139 | 6.0 | 13.0 | 0.00 | 0.00 | 0.00 | 55 | 1014.6 |
| 20260507122455 | 60 | 152 | 7.0 | 13.0 | 0.00 | 0.00 | 0.00 | 55 | 1014.6 |
| 20260507121955 | 60 | 159 | 7.0 | 13.0 | 0.00 | 0.00 | 0.00 | 55 | 1014.6 |
| 20260507121458 | 59 | 159 | 8.0 | 14.0 | 0.00 | 0.00 | 0.00 | 57 | 1014.7 |
| 20260507120955 | 59 | 169 | 7.0 | 14.0 | 0.00 | 0.00 | 0.00 | 54 | 1014.7 |
| 20260507120456 | 59 | 178 | 6.0 | 13.0 | 0.00 | 0.00 | 0.00 | 56 | 1014.7 |
| 20260507115958 | 59 | 169 | 8.0 | 13.0 | 0.00 | 0.00 | 0.00 | 55 | 1014.8 |
| 20260507115457 | 59 | 164 | 8.0 | 13.0 | 0.00 | 0.00 | 0.00 | 54 | 1014.9 |
| 20260507114956 | 58 | 159 | 6.0 | 12.0 | 0.00 | 0.00 | 0.00 | 55 | 1014.8 |
| 20260507113956 | 58 | 157 | 6.0 | 12.0 | 0.00 | 0.00 | 0.00 | 57 | 1014.8 |
| 20260507112958 | 57 | 163 | 6.0 | 12.0 | 0.00 | 0.00 | 0.00 | 59 | 1014.9 |
| 20260507112456 | 57 | 170 | 6.0 | 12.0 | 0.00 | 0.00 | 0.00 | 59 | 1014.8 |
| 20260507111956 | 56 | 169 | 6.0 | 12.0 | 0.00 | 0.00 | 0.00 | 59 | 1014.9 |
| 20260507111459 | 56 | 158 | 6.0 | 11.0 | 0.00 | 0.00 | 0.00 | 60 | 1014.8 |
| 20260507110957 | 56 | 147 | 5.0 | 11.0 | 0.00 | 0.00 | 0.00 | 63 | 1014.9 |
| 20260507110455 | 56 | 138 | 5.0 | 8.0 | 0.00 | 0.00 | 0.00 | 65 | 1014.9 |
| 20260507105959 | 55 | 141 | 5.0 | 8.0 | 0.00 | 0.00 | 0.00 | 66 | 1015.0 |
| 20260507105456 | 55 | 151 | 5.0 | 9.0 | 0.00 | 0.00 | 0.00 | 68 | 1015.0 |
| 20260507104955 | 55 | 159 | 5.0 | 10.0 | 0.00 | 0.00 | 0.00 | 66 | 1015.0 |
| 20260507103955 | 54 | 156 | 5.0 | 10.0 | 0.00 | 0.00 | 0.00 | 69 | 1015.1 |
| 20260507103455 | 54 | 155 | 5.0 | 10.0 | 0.00 | 0.00 | 0.00 | 67 | 1015.1 |
| 20260507102959 | 54 | 151 | 5.0 | 9.0 | 0.00 | 0.00 | 0.00 | 69 | 1015.2 |
| 20260507102456 | 54 | 157 | 6.0 | 11.0 | 0.00 | 0.00 | 0.00 | 69 | 1015.1 |
| 20260507101955 | 54 | 158 | 5.0 | 11.0 | 0.00 | 0.00 | 0.00 | 69 | 1015.1 |
| 20260507101458 | 53 | 158 | 5.0 | 9.0 | 0.00 | 0.00 | 0.00 | 71 | 1015.1 |
| 20260507100955 | 53 | 154 | 4.0 | 9.0 | 0.00 | 0.00 | 0.00 | 71 | 1015.1 |
| 20260507100455 | 53 | 162 | 4.0 | 10.0 | 0.00 | 0.00 | 0.00 | 73 | 1015.1 |
| 20260507095958 | 52 | 165 | 6.0 | 10.0 | 0.00 | 0.00 | 0.00 | 72 | 1015.1 |
| 20260507095456 | 52 | 159 | 5.0 | 10.0 | 0.00 | 0.00 | 0.00 | 72 | 1015.2 |
| 20260507094956 | 52 | 143 | 4.0 | 8.0 | 0.00 | 0.00 | 0.00 | 73 | 1015.2 |